Other Public Products
Issued by NWS Charleston, SC

Home | Current Version | Previous Version | Text Only | Print | Product List | Glossary Off
Versions: 1 2 3 4 5 6 7 8 9 10 11 12 13 14 15 16 17 18 19 20 21 22 23 24 25 26 27 28 29 30 31 32 33 34 35 36 37 38 39 40 41 42 43 44 45 46 47 48 49 50

000
FPUS82 KCHS 271827
OPUCHS

TEST...KCHS/KSAV Gateway Observations...TEST
National Weather Service Charleston SC
200 PM EDT SAT MAY 27 2017

NOTE: "fair" indicates few or no clouds below 12,000 feet with no
significant weather and/or obstructions to visibility.

SCZ050-WAZ558-NCZ071-TXZ119-213-PAZ071-DCZ001-FLZ074-172-MI076-
NYZ176-178-MAZ016-IL014-TNZ027-NJZ106-GAZ044-MD014-271900-

...Gateway Observations for Charleston International...

CITY           SKY/WX    TMP DP  RH WIND       PRES   REMARKS
Chas Airport   MOSUNNY   89  64  43 W12       29.99F HX  90
6HR MIN TEMP:  72; 6HR MAX TEMP:  89;

Seattle        SUNNY     71  49  45 W7        30.10S
6HR MIN TEMP:  55; 6HR MAX TEMP:  72;

Charlotte      PTSUNNY   86  64  47 W10       29.96F
6HR MIN TEMP:  70; 6HR MAX TEMP:  86;

Dallas DFW     PTSUNNY   91  75  59 S18       29.83S HX 101
6HR MIN TEMP:  81; 6HR MAX TEMP:  91;

Dallas Love    PTSUNNY   89  74  60 S14G20    29.84S HX  98
6HR MIN TEMP:  80; 6HR MAX TEMP:  89;

Philladelphia  CLOUDY    72  50  45 W10       29.90R
6HR MIN TEMP:  65; 6HR MAX TEMP:  73;

Wash National  CLOUDY    72  62  71 NE7       29.90S
6HR MIN TEMP:  65; 6HR MAX TEMP:  74;

Baltimore      CLOUDY    71  58  63 SW3       29.90S
6HR MIN TEMP:  63; 6HR MAX TEMP:  74; 6HR PCP: TRACE;

Miami          PTSUNNY   94  75  54 E10       30.05F HX 105
6HR MIN TEMP:  83; 6HR MAX TEMP:  95;

Detroit        PTSUNNY   71  56  58 E7        29.92S
6HR MIN TEMP:  62; 6HR MAX TEMP:  74;

Newark         CLOUDY    73  55  53 W12       29.86S
6HR MIN TEMP:  65; 6HR MAX TEMP:  73;

Laguardia      CLOUDY    71  53  52 NW5       29.86S
6HR MIN TEMP:  65; 6HR MAX TEMP:  72;

J F K          CLOUDY    70  58  65 SW12      29.88S
6HR MIN TEMP:  66; 6HR MAX TEMP:  73;

Boston Logan   MOSUNNY   58  51  78 E12       29.89R
6HR MIN TEMP:  57; 6HR MAX TEMP:  61;

Ft. Lauderdale PTSUNNY   88  76  67 E13       30.04F HX  99
6HR MIN TEMP:  82; 6HR MAX TEMP:  91;

Chicago O`Hare MOSUNNY   72  53  51 NE3       29.90F
6HR MIN TEMP:  55; 6HR MAX TEMP:  73;

Chicago Midway PTSUNNY   71  57  61 E3        29.91S
6HR MIN TEMP:  58; 6HR MAX TEMP:  72;

Houston Bush   PTSUNNY   92  74  55 S15G22    29.93F HX 101
6HR MIN TEMP:  81; 6HR MAX TEMP:  92;

Houston Hobby  PTSUNNY   89  75  63 S16       29.94F HX  99
6HR MIN TEMP:  80; 6HR MAX TEMP:  89;

Nashville      LGT RAIN  82  70  66 CALM      29.95S
6HR MIN TEMP:  73; 6HR MAX TEMP:  83;

Atlanta        PTSUNNY   82  66  58 VRB7      30.06F
6HR MIN TEMP:  68; 6HR MAX TEMP:  83;


$$

GAZ044-118-TXZ119-213-NCZ071-DCZ001-MDZ014-506-PAZ021-071-NJZ106-
NYZ176-178-MAZ106-OHZ011-021-055-MIZ076-KYZ091-ILZ014-INZ047-
MNZ060-ONZ431-271900-

...Gateway Observations for Savannah International...

CITY           SKY/WX    TMP DP  RH WIND       PRES   REMARKS
Savannah Arpt  MOSUNNY   92  61  35 W10       30.02F HX  92
6HR MIN TEMP:  69; 6HR MAX TEMP:  92;

Atlanta        PTSUNNY   82  66  58 VRB7      30.06F
6HR MIN TEMP:  68; 6HR MAX TEMP:  83;

Charlotte      PTSUNNY   86  64  47 W10       29.96F
6HR MIN TEMP:  70; 6HR MAX TEMP:  86;

Dallas DFW     PTSUNNY   91  75  59 S18       29.83S HX 101
6HR MIN TEMP:  81; 6HR MAX TEMP:  91;

Houston Bush   PTSUNNY   92  74  55 S15G22    29.93F HX 101
6HR MIN TEMP:  81; 6HR MAX TEMP:  92;

Wash National  CLOUDY    72  62  71 NE7       29.90S
6HR MIN TEMP:  65; 6HR MAX TEMP:  74;

Wash Dulles    CLOUDY    68  61  78 N8        29.91R
6HR MIN TEMP:  61; 6HR MAX TEMP:  72; 6HR PCP:  0.01;

Baltimore      CLOUDY    71  58  63 SW3       29.90S
6HR MIN TEMP:  63; 6HR MAX TEMP:  74; 6HR PCP: TRACE;

Philadelphia   CLOUDY    72  50  45 W10       29.90R
6HR MIN TEMP:  65; 6HR MAX TEMP:  73;

Newark         CLOUDY    73  55  53 W12       29.86S
6HR MIN TEMP:  65; 6HR MAX TEMP:  73;

Laguardia      CLOUDY    71  53  52 NW5       29.86S
6HR MIN TEMP:  65; 6HR MAX TEMP:  72;

J F K          CLOUDY    70  58  65 SW12      29.88S
6HR MIN TEMP:  66; 6HR MAX TEMP:  73;

Boston         MOSUNNY   58  51  78 E12       29.89R
6HR MIN TEMP:  57; 6HR MAX TEMP:  61;

Pittsburg      CLOUDY    65  61  87 S3        29.91S
6HR MIN TEMP:  57; 6HR MAX TEMP:  66; 6HR PCP:  0.02;

Akron          CLOUDY    71  58  63 E6        29.92R
6HR MIN TEMP:  58; 6HR MAX TEMP:  72;

Cleveland      MOSUNNY   71  55  56 NE14      29.93S
6HR MIN TEMP:  61; 6HR MAX TEMP:  73;

Cincinnati     MOSUNNY   79  68  69 W9        29.89S
6HR MIN TEMP:  71; 6HR MAX TEMP:  80;

Columbus       CLOUDY    75  67  75 CALM      29.87S
Detroit        PTSUNNY   71  56  58 E7        29.92S
6HR MIN TEMP:  62; 6HR MAX TEMP:  74;

Chicago O`Hare MOSUNNY   72  53  51 NE3       29.90F
6HR MIN TEMP:  55; 6HR MAX TEMP:  73;

Minneapolis    CLOUDY    69  43  38 W7        29.93R
6HR MIN TEMP:  57; 6HR MAX TEMP:  72;

Indianapolis   MOSUNNY   75  63  66 NW9       29.88F
6HR MIN TEMP:  68; 6HR MAX TEMP:  76;

Toronto Canada PTSUNNY   63  55  77 SE8       29.90F

$$




USA.gov is the U.S. government's official web portal to all federal, state and local government web resources and services.